Wind_Speed
45 41 40 40 40 41 43 44 47 50 53 52 51 49 48 46 43 40 38 37 38 37 36 36 39 40 39 38 39 41 42 43 44 46 47 48 49 48 46 45 45 48
43 40 40 39 39 39 41 44 47 50 53 53 52 50 49 47 44 41 38 37 36 36 35 36 38 37 36 35 37 39 40 41 43 45 47 49 49 48 46 44 44 45
43 42 42 40 39 39 40 43 46 50 52 53 53 51 50 47 44 41 39 37 36 34 34 36 37 35 34 34 36 39 40 41 42 43 45 47 47 46 45 43 43 44
45 44 42 39 38 38 40 43 46 49 52 53 53 52 50 47 44 41 39 38 36 34 34 36 37 36 34 33 35 38 40 41 41 43 44 45 46 45 44 43 42 42
44 42 41 38 37 37 39 42 45 47 50 52 52 51 49 46 43 40 38 37 36 35 35 37 38 37 34 32 32 35 38 39 39 41 43 44 44 43 42 42 40 38
41 40 39 38 38 38 39 41 43 44 46 49 50 49 46 44 41 38 36 36 36 36 36 37 37 36 33 31 31 33 35 36 36 38 41 42 41 41 40 38 35 33
39 37 36 36 36 37 38 39 42 43 44 45 46 45 43 41 39 37 35 34 35 36 37 37 36 35 33 32 31 32 33 34 34 36 38 39 39 39 38 37 35 34
36 34 32 32 32 32 34 36 39 41 42 43 44 43 40 38 37 35 34 33 33 34 36 37 36 35 33 31 30 31 32 33 34 34 36 37 38 38 37 37 37 37
31 29 28 27 27 27 28 30 33 36 38 39 40 40 38 36 35 33 31 30 31 33 35 37 36 34 32 30 30 30 31 32 33 33 33 34 36 36 35 35 35 36
28 27 25 24 24 23 23 25 27 29 31 33 33 34 35 33 31 29 28 28 30 32 34 34 33 32 31 29 28 29 31 32 32 32 31 31 33 34 33 33 34 36
29 28 26 25 23 22 22 21 21 22 23 24 25 27 28 28 26 25 25 26 27 29 30 29 29 28 28 26 26 27 30 31 32 32 31 30 31 32 31 31 33 35
29 28 27 26 24 23 21 20 19 17 16 16 17 20 21 21 21 21 22 22 23 24 25 25 26 25 25 24 24 26 28 30 31 32 31 30 30 31 31 30 32 33
28 27 27 26 24 22 20 17 16 14 12 11 12 13 14 15 16 16 18 19 19 20 21 22 22 23 23 23 24 25 27 30 31 32 32 31 30 32 32 30 30 31
27 26 26 24 23 21 18 15 13 11 9 8 8 8 9 10 11 12 14 15 16 16 17 19 20 21 21 22 22 23 25 29 31 32 32 32 32 33 33 31 29 29
26 26 25 23 22 20 18 15 13 11 9 8 6 5 5 5 6 8 9 10 11 12 14 16 17 18 20 21 22 23 24 27 30 31 32 32 32 33 33 31 29 28
26 26 25 23 22 20 19 17 16 15 14 13 12 11 8 6 4 3 4 5 7 9 12 14 16 18 20 23 24 24 25 27 30 32 32 32 33 32 31 30 29 26
26 25 24 24 23 21 20 19 19 20 20 19 18 16 14 11 8 6 5 4 5 8 11 13 15 18 20 22 24 24 26 28 30 32 33 33 33 32 30 29 27 25
26 26 25 25 23 22 21 21 22 22 22 22 21 19 18 16 14 11 9 6 5 5 7 9 11 13 15 17 19 21 24 26 29 31 33 34 34 33 31 29 27 25
26 27 27 26 24 23 22 21 22 23 23 23 22 21 20 19 18 16 14 12 11 9 8 7 7 7 8 10 14 16 19 22 25 28 30 32 32 31 30 29 27 27
25 26 26 25 25 23 22 22 23 23 23 22 22 21 20 19 18 17 15 14 13 12 11 10 9 6 4 4 6 9 13 17 20 23 25 27 28 28 28 27 27 28
22 22 22 22 22 21 21 21 21 20 20 19 18 18 16 15 14 13 13 12 10 10 10 10 9 7 6 5 4 2 2 6 11 16 21 23 24 25 26 27 28 29
19 20 20 20 19 18 17 17 17 17 17 16 16 15 15 13 11 9 8 9 10 8 8 8 8 7 7 6 5 7 6 5 4 7 13 18 23 24 25 26 28 28
19 19 20 20 20 19 18 17 16 16 15 16 16 15 15 14 13 11 10 10 10 10 8 8 8 7 7 5 3 3 4 6 6 6 6 9 15 21 24 25 25 25
19 17 18 20 19 19 19 18 18 17 17 17 17 16 16 16 16 16 15 15 14 12 10 9 9 9 8 6 4 4 6 6 7 8 7 6 7 12 17 19 20 21
17 16 17 20 19 17 17 18 19 19 19 18 18 18 18 18 18 17 18 18 18 16 14 11 10 10 9 9 8 9 9 9 9 10 9 9 8 8 11 14 16 17
16 14 15 19 19 17 17 17 18 19 19 18 18 19 19 20 21 22 22 22 20 18 16 14 12 12 11 10 10 10 10 10 11 11 11 11 11 11 12 13 15 16
Wind_Direction
301 296 291 286 281 276 272 269 266 266 267 269 271 273 275 277 277 275 273 268 262 258 255 253 252 251 250 249 248 248 247 246 246 245 244 244 244 244 244 245 247 247
300 296 291 287 282 277 272 268 267 267 268 270 272 273 274 275 275 273 268 263 257 254 252 249 248 247 245 245 247 248 248 247 246 245 243 243 243 243 244 245 246 246
301 297 292 288 283 277 271 267 266 266 268 269 271 271 272 273 272 269 265 260 255 252 250 248 247 245 242 243 247 249 251 251 249 246 243 242 242 242 243 246 246 245
301 298 294 290 285 278 272 267 264 264 266 268 269 270 271 271 271 268 263 260 256 251 249 248 247 246 244 246 249 249 250 252 250 248 244 241 240 240 242 245 247 245
302 299 296 291 285 279 273 268 265 264 264 266 267 269 270 270 269 267 263 260 256 251 248 247 248 248 248 250 250 248 248 250 249 247 245 242 239 238 240 243 246 245
302 299 295 290 286 280 274 270 267 265 264 265 266 267 268 268 267 265 261 258 255 251 247 247 248 249 251 251 250 248 248 248 247 246 245 243 239 237 238 241 242 241
304 301 296 291 287 281 276 271 267 264 263 262 264 264 265 265 264 262 258 255 253 250 248 248 248 249 250 251 248 247 247 247 245 244 244 243 239 235 235 238 239 238
309 307 302 297 291 285 279 273 267 265 263 261 261 261 262 262 260 257 254 253 252 250 248 247 248 249 250 249 247 247 247 247 245 243 242 241 237 234 233 236 239 241
320 318 313 307 301 293 285 277 271 266 264 262 260 259 259 259 258 256 254 252 251 249 247 247 248 250 249 246 244 245 246 246 244 241 240 238 234 232 233 235 238 240
337 335 329 323 316 308 298 288 280 273 268 266 262 259 258 257 258 257 254 251 249 248 248 249 249 249 247 245 244 245 245 244 243 240 236 235 232 231 231 233 237 239
346 344 341 337 332 324 316 304 295 286 277 272 266 260 257 256 257 256 253 250 249 250 251 251 251 249 247 246 246 247 245 243 242 237 231 230 230 230 230 233 237 240
348 347 346 345 342 336 328 317 308 298 288 278 267 259 257 256 256 254 252 251 250 251 251 249 249 249 248 248 248 249 245 241 239 235 229 227 228 228 229 232 236 239
350 350 350 349 348 345 339 331 324 314 301 286 270 263 260 258 258 254 252 253 250 248 247 247 249 251 250 250 250 251 246 239 236 233 227 225 227 228 227 230 234 238
354 355 355 355 355 354 353 351 348 343 333 317 296 284 276 269 264 259 258 257 252 248 245 246 249 250 250 250 250 252 248 238 234 232 228 226 228 229 229 230 234 237
4 4 3 2 4 6 8 12 16 20 20 17 10 357 337 311 288 272 268 263 255 250 248 249 251 250 250 250 248 248 246 239 232 230 229 227 228 231 232 232 234 237
13 13 13 13 16 20 23 29 37 43 48 51 50 49 46 33 6 327 300 283 272 265 260 258 257 254 252 252 250 246 242 237 231 227 227 227 228 230 231 230 231 233
20 21 23 25 28 32 36 42 49 53 56 58 58 59 59 55 48 36 13 334 303 286 276 270 265 262 260 256 254 249 242 237 231 226 224 225 227 227 227 226 227 229
27 29 31 33 36 40 45 50 54 55 56 57 58 59 58 57 57 52 44 31 4 330 304 294 282 274 269 262 256 251 245 241 235 228 225 224 226 226 224 223 224 227
32 34 35 38 42 45 49 52 52 51 51 51 52 52 51 52 54 53 52 51 45 38 26 8 343 311 288 270 259 252 247 244 240 234 230 227 228 228 225 222 222 226
32 33 35 38 41 44 47 47 47 46 46 45 43 41 39 38 36 35 36 41 45 44 37 29 23 11 349 311 274 256 249 247 245 241 236 233 232 232 229 225 224 228
35 34 35 37 41 44 44 43 43 41 39 39 37 34 32 28 23 17 14 14 21 31 27 12 6 14 23 31 45 34 291 254 247 244 240 236 234 232 231 231 232 234
39 38 37 36 38 43 44 43 41 36 33 33 34 33 30 27 23 15 3 353 348 355 3 350 340 359 20 33 60 54 24 351 300 260 244 237 233 230 229 230 232 237
36 39 40 38 37 39 42 44 43 41 40 38 37 36 30 26 24 18 9 359 346 339 336 324 315 326 346 355 29 40 334 310 303 294 268 241 230 228 227 227 229 234
32 37 42 44 43 42 42 41 38 37 38 36 33 31 26 19 15 10 3 356 348 339 329 318 306 300 298 293 275 246 241 246 256 267 272 259 229 219 220 222 224 227
28 30 39 43 42 41 38 33 29 26 23 20 18 15 12 6 2 358 351 344 338 330 322 313 303 293 280 263 252 245 237 232 234 243 251 251 240 225 219 219 220 223
24 25 34 35 33 31 27 24 23 22 17 13 8 3 360 356 352 348 341 335 329 321 313 305 297 289 278 264 251 242 237 236 236 237 238 237 235 233 231 229 227 229
Height
2863 2860 2857 2855 2854 2853 2852 2852 2852 2850 2849 2850 2852 2853 2854 2855 2856 2858 2859 2860 2861 2862 2864 2866 2867 2868 2869 2871 2872 2873 2874 2876 2878 2880 2882 2884 2886 2889 2892 2894 2896 2898
2856 2853 2851 2849 2848 2847 2846 2845 2844 2843 2843 2843 2844 2846 2847 2848 2850 2851 2851 2852 2854 2856 2858 2859 2860 2862 2864 2866 2867 2867 2869 2870 2872 2874 2875 2877 2879 2882 2885 2888 2890 2893
2848 2846 2844 2842 2841 2840 2839 2838 2837 2836 2835 2836 2837 2838 2839 2841 2842 2844 2845 2846 2848 2850 2852 2853 2855 2857 2859 2861 2862 2863 2864 2865 2867 2868 2869 2871 2874 2876 2879 2882 2885 2887
2841 2838 2836 2835 2834 2832 2831 2831 2830 2829 2828 2828 2829 2831 2832 2834 2835 2837 2838 2840 2842 2844 2846 2847 2849 2851 2854 2856 2857 2857 2858 2860 2861 2863 2863 2865 2868 2871 2874 2877 2879 2881
2833 2830 2828 2827 2826 2825 2824 2823 2822 2822 2822 2821 2822 2823 2825 2826 2828 2830 2832 2834 2836 2837 2839 2841 2843 2845 2848 2850 2851 2852 2853 2854 2856 2858 2859 2861 2863 2866 2869 2872 2874 2877
2827 2824 2822 2820 2818 2817 2816 2815 2815 2815 2815 2814 2815 2816 2818 2819 2822 2823 2825 2827 2829 2831 2833 2835 2837 2840 2842 2844 2845 2846 2848 2849 2851 2853 2854 2856 2859 2861 2864 2867 2870 2872
2820 2818 2816 2814 2812 2810 2809 2808 2807 2807 2807 2808 2808 2809 2811 2813 2815 2817 2819 2821 2823 2825 2828 2830 2832 2834 2836 2838 2839 2841 2843 2844 2846 2848 2850 2852 2854 2857 2859 2862 2865 2867
2814 2812 2810 2807 2806 2804 2802 2801 2800 2800 2800 2801 2801 2803 2806 2807 2809 2811 2813 2815 2818 2820 2822 2825 2827 2829 2831 2833 2835 2836 2838 2840 2842 2843 2845 2847 2850 2852 2855 2857 2860 2862
2810 2807 2804 2802 2800 2798 2796 2795 2794 2794 2794 2795 2796 2798 2800 2802 2804 2806 2809 2811 2813 2815 2817 2819 2821 2823 2826 2828 2830 2832 2834 2835 2837 2839 2841 2843 2846 2848 2851 2854 2856 2858
2806 2804 2801 2798 2796 2794 2792 2790 2789 2789 2789 2790 2791 2793 2795 2797 2800 2802 2804 2806 2808 2810 2812 2814 2817 2819 2822 2824 2826 2828 2829 2831 2833 2835 2837 2839 2842 2845 2848 2850 2852 2854
2805 2802 2799 2796 2793 2791 2789 2787 2786 2785 2786 2786 2787 2789 2791 2794 2796 2798 2800 2802 2804 2806 2809 2811 2814 2816 2818 2820 2822 2824 2826 2827 2829 2831 2833 2836 2838 2842 2845 2847 2849 2850
2804 2801 2798 2794 2792 2789 2787 2786 2784 2784 2784 2784 2785 2786 2789 2791 2793 2795 2797 2799 2801 2804 2806 2808 2810 2812 2815 2817 2819 2820 2822 2823 2825 2827 2830 2833 2835 2838 2841 2843 2845 2847
2804 2800 2797 2794 2792 2789 2787 2785 2784 2783 2782 2783 2784 2785 2787 2789 2791 2793 2795 2797 2799 2801 2803 2805 2807 2809 2811 2813 2815 2817 2818 2820 2821 2824 2827 2830 2832 2835 2837 2840 2842 2844
2804 2801 2798 2795 2792 2790 2787 2785 2784 2783 2783 2783 2784 2785 2787 2789 2791 2792 2794 2795 2797 2798 2800 2802 2804 2806 2808 2810 2812 2813 2815 2816 2818 2820 2823 2826 2829 2831 2834 2837 2839 2841
2805 2802 2799 2796 2793 2791 2789 2787 2785 2784 2784 2784 2785 2786 2787 2789 2791 2792 2793 2794 2795 2797 2799 2800 2802 2804 2805 2807 2808 2810 2811 2812 2814 2817 2819 2822 2825 2828 2831 2833 2836 2838
2806 2804 2801 2798 2795 2793 2791 2789 2788 2787 2787 2787 2787 2788 2789 2790 2791 2792 2793 2794 2795 2796 2798 2799 2801 2802 2803 2804 2805 2806 2807 2809 2810 2813 2816 2819 2822 2824 2827 2830 2833 2835
2809 2806 2803 2801 2798 2796 2795 2793 2792 2791 2791 2790 2791 2791 2792 2792 2793 2793 2794 2795 2796 2796 2797 2798 2799 2800 2800 2801 2802 2803 2804 2805 2807 2809 2812 2815 2818 2821 2824 2827 2830 2832
2811 2808 2806 2804 2802 2800 2798 2797 2796 2795 2795 2794 2794 2794 2794 2794 2795 2795 2795 2796 2796 2797 2797 2797 2798 2798 2798 2798 2799 2800 2801 2802 2803 2805 2808 2811 2814 2817 2821 2824 2827 2829
2814 2811 2809 2807 2805 2804 2802 2801 2800 2799 2798 2798 2798 2797 2797 2797 2797 2797 2797 2797 2798 2798 2798 2797 2797 2797 2797 2797 2797 2798 2798 2800 2801 2803 2805 2808 2811 2814 2818 2821 2824 2826
2816 2814 2812 2810 2809 2807 2806 2805 2804 2803 2802 2801 2801 2800 2800 2800 2799 2799 2800 2799 2799 2799 2799 2798 2798 2797 2797 2796 2796 2796 2797 2798 2800 2802 2804 2806 2809 2812 2815 2818 2821 2823
2819 2817 2815 2814 2812 2811 2809 2808 2807 2806 2805 2804 2804 2803 2803 2803 2802 2802 2802 2801 2801 2801 2800 2800 2799 2798 2797 2797 2797 2796 2797 2798 2799 2800 2802 2804 2807 2809 2812 2815 2818 2820
2821 2820 2818 2816 2815 2813 2812 2811 2810 2809 2808 2807 2807 2806 2805 2805 2804 2804 2803 2803 2802 2802 2801 2801 2800 2799 2798 2798 2798 2798 2798 2798 2799 2800 2801 2802 2804 2807 2809 2812 2814 2816
2824 2822 2820 2818 2817 2816 2814 2813 2812 2811 2810 2810 2809 2808 2807 2806 2805 2805 2804 2803 2802 2802 2801 2801 2800 2799 2799 2799 2799 2799 2799 2799 2800 2800 2800 2801 2802 2804 2806 2809 2811 2813
2825 2824 2822 2820 2819 2818 2817 2816 2815 2813 2812 2811 2810 2809 2808 2807 2806 2805 2804 2803 2802 2801 2801 2800 2800 2799 2799 2799 2799 2799 2799 2799 2800 2800 2800 2801 2802 2803 2805 2807 2809 2811
2827 2826 2824 2822 2821 2819 2818 2817 2816 2815 2814 2813 2811 2810 2809 2808 2807 2806 2804 2803 2802 2800 2800 2799 2799 2798 2798 2798 2798 2798 2798 2799 2799 2800 2800 2801 2802 2803 2804 2806 2807 2809
2828 2827 2826 2824 2822 2821 2820 2819 2818 2816 2815 2814 2813 2811 2810 2808 2807 2805 2803 2801 2800 2798 2797 2797 2797 2797 2796 2796 2797 2797 2797 2798 2798 2799 2799 2800 2801 2802 2803 2804 2806 2807